Location: ??????????
(44.2167°N, 135.5333°E)
Time: 13:55:27
(UTC+00:00)

Cosmos 2151 Rocket - Pass Details

Date: 15 June 2025
Orbit: 613 x 635 km, 82.5° (Epoch: 15 July)

Event Time Altitude Azimuth Distance (km) Brightness Sun altitude
Rises 16:29:28 0° 346° (NNW) 2,909 7.9 -19.3°
Reaches altitude 10° 16:31:45 10° 342° (NNW) 2,002 6.8 -19.2°
Maximum altitude 16:36:03 52° 266° (W) 782 3.8 -18.8°
Enters shadow 16:37:09 41° 221° (SW) 914 3.9 -18.8°
